[[{"header":{"parameterUnit":"m.s-1","parameterCategory":1,"la1":30.2991,"la2":30.254,"lo1":-89.0895,"lo2":-89.0444,"dy":0.0017,"dx":0.0017,"nx":28,"ny":28,"refTime":"2026-01-01T03:00:00:Z","depth":0,"parameterNumber":2,"parameterNumberName":"U-component_of_WINDS"},"data":[0,0,0,0,0,0,0,0,0,0,0,0,0,0,0,0,0,0,0,0,0,0,0,0,0,0,0,0,0,0,0,0,0,0,0,0,0,0,0,0,0,0,0,0,0,0,0,0,0,0,0,0,0,0,0,0,0,0,4.5483,4.5485,0,4.5717,4.572,4.5722,4.5714,4.5711,4.5708,4.5705,4.5948,4.5957,4.5967,0,0,0,0,0,0,0,0,0,0,0,0,0,4.503,4.5039,4.5483,4.5486,4.5489,4.5717,4.572,4.5723,4.5715,4.5711,4.5707,4.5703,4.5945,4.5956,4.5967,0,0,0,0,0,0,0,0,0,0,0,0,0,4.5242,4.5041,4.5482,4.5512,4.5517,4.5716,4.572,4.5724,4.5716,4.5711,4.5706,4.5701,4.5941,4.5955,4.5969,4.6155,0,0,4.6013,4.6019,0,0,0,0,0,0,0,0,4.523,4.5259,4.5505,4.551,4.5516,4.5681,4.565,4.5869,4.5717,4.564,4.5705,4.5699,4.5863,4.5884,4.5939,4.6166,4.6177,4.6014,4.6023,4.6029,4.6033,0,0,0,0,0,0,0,4.5215,4.5248,4.5575,4.5508,4.5515,4.5514,4.5539,4.5691,4.5777,4.5647,4.5647,4.5674,4.5866,4.5925,4.5944,4.618,4.6014,4.6026,4.6035,4.6041,4.6571,4.6576,0,0,0,0,0,0,4.5194,4.5236,4.5568,4.5583,4.5358,4.5526,4.5554,4.5633,4.5775,4.5792,4.5678,4.5673,4.5903,4.5928,4.5953,4.6178,4.6029,4.6042,4.605,4.6565,4.6572,4.6578,0,0,0,0,0,0,4.5184,4.5224,4.5559,4.541,4.5452,4.5539,4.5629,4.5641,4.57,4.5799,4.5814,4.5723,4.59,4.5933,4.6104,4.6186,4.6048,4.6061,4.6559,4.6567,4.6575,4.6631,0,0,0,0,0,0,4.5171,4.522,4.5291,4.5411,4.546,4.5706,4.5634,4.5649,4.5724,4.5719,4.5845,4.5861,4.5899,4.6083,4.6118,4.6203,4.6073,4.6552,4.6563,4.6572,4.6622,4.664,4.6655,0,0,0,0,0,4.5155,4.5299,4.5295,4.5335,4.5551,4.571,4.5738,4.5778,4.5731,4.5803,4.5866,4.5857,4.6172,4.61,4.614,4.6231,4.6547,4.656,4.6572,4.6615,4.6637,4.6655,0,0,0,0,0,0,4.5188,4.5315,4.5312,4.5499,4.5593,4.5708,4.5801,4.58,4.5912,4.5903,4.5949,4.5977,4.6148,4.6207,4.6125,4.6418,4.6353,4.6374,4.6372,4.6394,4.641,4.6392,4.6084,0,0,0,0,0,4.5216,4.5334,4.544,4.5594,4.5642,4.5713,4.5784,4.5807,4.5907,4.5948,4.6024,4.6123,4.6244,4.6323,4.644,4.6631,4.6658,4.6713,4.673,4.6743,4.676,4.6864,4.6889,4.6619,4.6619,4.6619,0,0,4.5277,4.5361,4.5433,4.5603,4.5679,4.58,4.5747,4.5879,4.5969,4.5968,4.6133,4.6193,4.6306,4.6488,4.6572,4.6542,4.6841,4.6759,4.6769,4.6779,4.6879,4.6905,4.6927,4.6627,4.6626,4.6624,0,0,4.5449,4.5526,4.5661,4.5738,4.5854,4.59,4.5933,4.6048,4.6087,4.6254,4.6255,4.6364,4.6572,4.6652,4.672,4.6922,4.6916,4.6959,4.7045,4.7146,4.7167,4.7186,4.7256,4.7281,4.6976,4.6976,4.6976,0,4.551,4.5692,4.5732,4.5863,4.5937,4.5941,4.6078,4.6152,4.63,4.6351,4.6316,4.6576,4.6653,4.6852,4.6901,4.6957,4.6995,4.6944,4.7161,4.718,4.7199,4.7266,4.7292,4.698,4.698,4.6979,4.6979,0,4.5761,4.5887,4.5984,4.6124,4.621,4.6344,4.6404,4.6486,4.6501,4.6551,4.672,4.6812,4.6947,4.6996,4.7013,4.7198,4.7176,4.7151,4.7087,4.7228,4.7292,4.7318,4.6986,4.6985,4.6984,4.6983,0,0,4.5959,4.6119,4.6154,4.6217,4.6344,4.6443,4.6578,4.6708,4.6776,4.6879,4.6992,4.7168,4.7144,4.7221,4.7248,4.7336,4.7487,4.73,4.7303,4.733,4.7695,4.7711,4.774,4.7485,4.7491,4.7495,4.7684,0,4.6143,4.6379,4.6418,4.6626,4.6742,4.6747,4.6864,4.6955,4.7006,4.7112,4.7169,4.7292,4.7253,4.7299,4.7387,4.745,4.7561,4.7437,4.759,4.7595,4.7559,4.7774,4.7792,4.7967,4.771,4.7714,4.7717,0,4.6388,4.6495,4.6713,4.6823,4.6874,4.6978,4.71,4.7202,4.7305,4.7336,4.7421,4.7437,4.7576,4.7507,4.77,4.7615,4.768,4.7721,4.7728,4.7742,4.7663,4.7792,4.8024,4.8049,4.7757,4.7754,4.7751,0,4.6507,4.6706,4.6862,4.6917,4.705,4.7122,4.7181,4.728,4.7355,4.7463,4.7512,4.7635,4.7702,4.7796,4.7844,4.779,4.8033,4.7969,4.8062,4.806,4.8111,4.8107,4.8354,4.8157,4.8156,4.8156,4.8155,0,4.6707,4.684,4.6917,4.7013,4.7162,4.7206,4.7353,4.741,4.7498,4.7605,4.7618,4.7719,4.7777,4.7886,4.7925,4.8077,4.8108,4.8136,4.8144,4.8134,4.813,4.8176,4.8164,4.8163,4.8161,4.816,4.8159,0,4.6865,4.6922,4.7092,4.7204,4.7235,4.7339,4.7435,4.7529,4.7579,4.7714,4.7748,4.7827,4.7956,4.8014,4.8174,4.82,4.8373,4.8374,4.8337,4.834,4.8428,4.8418,4.8712,4.8752,4.853,4.8532,4.8534,0,4.6987,4.7089,4.7211,4.7283,4.7343,4.746,4.7536,4.7584,4.7663,4.7788,4.7866,4.7995,4.8101,4.8307,4.8379,4.8501,4.8503,4.8598,4.8522,4.8507,4.8502,4.8494,4.8504,4.8611,4.8613,4.8615,4.8616,0,4.7197,4.722,4.7329,4.7449,4.7539,4.7636,4.7731,4.7789,4.7852,4.794,4.8071,4.8153,4.8315,4.8443,4.8569,4.8631,4.8634,4.864,4.8667,4.8656,4.863,4.8643,4.8372,4.8633,4.8631,4.863,4.8629,4.8628,4.7339,4.7429,4.7529,4.765,4.7726,4.7814,4.7906,4.7967,4.8077,4.8211,4.8234,4.8373,4.8473,4.8643,4.8709,4.8819,4.8796,4.8837,4.8847,4.8855,4.8859,4.8614,4.8843,4.8842,4.8842,4.8842,4.8841,0,4.7548,4.7612,4.7723,4.7854,4.7949,4.7943,4.8048,4.8128,4.825,4.8342,4.8445,4.8595,4.8719,4.8801,4.8926,4.8998,4.9003,4.9029,4.9023,4.9037,4.8874,4.8836,4.9023,4.9023,4.9023,4.9023,4.9023,4.9023,4.7667,4.7819,4.7853,4.8043,4.8106,4.8242,4.8301,4.8383,4.8456,4.8623,4.8725,4.8777,4.8866,4.8997,4.911,4.9131,4.9175,4.9203,4.9222,4.9068,4.9049,4.903,4.8995,4.9212,4.9213,4.9376,4.9377,4.9378]},{"header":{"parameterUnit":"m.s-1","parameterCategory":1,"la1":30.2991,"la2":30.254,"lo1":-89.0895,"lo2":-89.0444,"dy":0.0017,"dx":0.0017,"nx":28,"ny":28,"refTime":"2026-01-01T03:00:00:Z","depth":0,"parameterNumber":3,"parameterNumberName":"V-component_of_WINDS"},"data":[0,0,0,0,0,0,0,0,0,0,0,0,0,0,0,0,0,0,0,0,0,0,0,0,0,0,0,0,0,0,0,0,0,0,0,0,0,0,0,0,0,0,0,0,0,0,0,0,0,0,0,0,0,0,0,0,0,0,3.26,3.2602,0,3.2762,3.2764,3.2765,3.2785,3.2784,3.2782,3.2781,3.2944,3.295,3.2955,0,0,0,0,0,0,0,0,0,0,0,0,0,3.2304,3.231,3.26,3.2602,3.2604,3.2761,3.2764,3.2766,3.2786,3.2784,3.2782,3.278,3.2942,3.2949,3.2956,0,0,0,0,0,0,0,0,0,0,0,0,0,3.2446,3.2311,3.2599,3.2633,3.2637,3.2761,3.2764,3.2766,3.2786,3.2784,3.2781,3.2779,3.294,3.2948,3.2957,3.3058,0,0,3.2984,3.2987,0,0,0,0,0,0,0,0,3.2438,3.2457,3.2626,3.2631,3.2636,3.2751,3.2719,3.2864,3.2787,3.273,3.2781,3.2778,3.2882,3.2895,3.293,3.3065,3.3072,3.2984,3.299,3.2993,3.2996,0,0,0,0,0,0,0,3.2428,3.245,3.2664,3.2628,3.2635,3.2638,3.2656,3.2747,3.2817,3.2734,3.2736,3.2755,3.2884,3.2922,3.2934,3.3075,3.2984,3.2992,3.2997,3.3001,3.3298,3.3301,0,0,0,0,0,0,3.2412,3.2442,3.2659,3.2669,3.2529,3.2646,3.2665,3.2716,3.2816,3.2829,3.2757,3.2756,3.2908,3.2924,3.294,3.3064,3.2993,3.3001,3.3006,3.3296,3.3299,3.3302,0,0,0,0,0,0,3.2406,3.2432,3.2652,3.2556,3.2584,3.2653,3.2711,3.2721,3.2759,3.2833,3.2845,3.2783,3.2907,3.2928,3.3028,3.307,3.3005,3.3013,3.3292,3.3297,3.33,3.3312,0,0,0,0,0,0,3.2397,3.2429,3.2469,3.2556,3.2589,3.2739,3.2713,3.2726,3.2774,3.2774,3.2861,3.2873,3.2907,3.3015,3.3037,3.308,3.302,3.3289,3.3294,3.3299,3.3308,3.3316,3.3322,0,0,0,0,0,3.2387,3.2466,3.2471,3.2497,3.2641,3.2741,3.276,3.2798,3.2778,3.2818,3.2865,3.287,3.3061,3.3025,3.305,3.3097,3.3287,3.3293,3.3299,3.3305,3.3314,3.3322,0,0,0,0,0,0,3.2381,3.2478,3.2485,3.2595,3.266,3.2744,3.2796,3.2807,3.2878,3.2874,3.2917,3.2937,3.3035,3.3076,3.3033,3.3198,3.3172,3.3183,3.3168,3.3178,3.3185,3.3173,3.3027,0,0,0,0,0,3.2393,3.2467,3.2547,3.2636,3.2669,3.2727,3.2772,3.2795,3.2864,3.2891,3.2946,3.3011,3.3085,3.3134,3.3207,3.3314,3.3332,3.3358,3.3365,3.3371,3.338,3.3438,3.345,3.3322,3.3322,3.3321,0,0,3.2418,3.248,3.2524,3.2637,3.269,3.2764,3.275,3.283,3.2885,3.2903,3.3001,3.3043,3.3118,3.3222,3.327,3.3259,3.3419,3.3378,3.3382,3.3389,3.3445,3.3457,3.3468,3.3326,3.3325,3.3324,0,0,3.2501,3.2556,3.2635,3.2689,3.2769,3.2807,3.2826,3.2909,3.2938,3.3037,3.3051,3.3117,3.3245,3.3298,3.3341,3.3442,3.345,3.3465,3.3502,3.3558,3.3568,3.3578,3.3613,3.3625,3.3474,3.3474,3.3474,0,3.2521,3.2636,3.2675,3.2755,3.2803,3.2823,3.2903,3.2952,3.3052,3.3084,3.307,3.323,3.3283,3.3398,3.3423,3.3458,3.3479,3.3455,3.3564,3.3574,3.3583,3.3616,3.363,3.3475,3.3475,3.3475,3.3475,0,3.2656,3.2735,3.2789,3.2886,3.294,3.302,3.3069,3.312,3.3138,3.3176,3.3276,3.3339,3.3424,3.3453,3.3472,3.3571,3.3562,3.3555,3.353,3.3596,3.3628,3.3641,3.3477,3.3476,3.3476,3.3476,0,0,3.2742,3.2858,3.2877,3.292,3.3009,3.3071,3.315,3.3234,3.3275,3.3343,3.3409,3.3517,3.3511,3.356,3.3584,3.3634,3.3708,3.3621,3.3624,3.3635,3.382,3.3824,3.3838,3.3713,3.3716,3.3718,3.3813,0,3.2835,3.2978,3.3015,3.3136,3.3208,3.3227,3.3296,3.3357,3.3395,3.3461,3.3502,3.3577,3.3564,3.3594,3.3643,3.3689,3.3746,3.3682,3.3774,3.3777,3.3755,3.3856,3.3861,3.3948,3.3826,3.3828,3.383,0,3.2963,3.3033,3.3162,3.3241,3.3272,3.3334,3.3413,3.3476,3.3545,3.3569,3.3623,3.3642,3.3724,3.3693,3.3805,3.3761,3.3801,3.3828,3.3832,3.3842,3.3807,3.3868,3.3976,3.3989,3.385,3.3849,3.3847,0,3.3011,3.3138,3.3231,3.3268,3.3362,3.3404,3.3445,3.3512,3.356,3.3628,3.3659,3.3736,3.3778,3.3836,3.3875,3.3849,3.3983,3.3956,3.4004,3.4003,3.4031,3.4029,3.4147,3.4057,3.4057,3.4057,3.4056,0,3.3111,3.3189,3.3254,3.3312,3.3398,3.3439,3.3523,3.3565,3.3624,3.3688,3.3708,3.3768,3.3816,3.3881,3.3912,3.3999,3.4018,3.4038,3.4045,3.4036,3.4034,3.4063,3.4058,3.406,3.406,3.4059,3.4058,0,3.3181,3.3228,3.333,3.341,3.3432,3.3493,3.3561,3.3616,3.3654,3.3735,3.3756,3.3815,3.3893,3.3937,3.4036,3.4056,3.4153,3.4157,3.413,3.4133,3.4178,3.4173,3.4319,3.434,3.4236,3.4237,3.4237,0,3.3241,3.3302,3.3388,3.3433,3.3475,3.3547,3.3596,3.3637,3.3686,3.3769,3.3814,3.3893,3.3959,3.4082,3.4133,3.4208,3.4214,3.426,3.4225,3.4214,3.4213,3.4209,3.4215,3.4266,3.4267,3.4267,3.4268,0,3.3344,3.3364,3.3434,3.3511,3.3569,3.3632,3.3694,3.3729,3.378,3.3835,3.3915,3.3966,3.4066,3.4144,3.4223,3.4263,3.4274,3.4278,3.4293,3.4285,3.4266,3.4276,3.4146,3.4275,3.4274,3.4274,3.4273,3.4273,3.341,3.3464,3.3533,3.361,3.3661,3.3718,3.3774,3.3819,3.3887,3.3972,3.3992,3.4076,3.4141,3.4248,3.429,3.4356,3.4347,3.4369,3.4375,3.4379,3.438,3.4256,3.437,3.437,3.437,3.437,3.437,0,3.3513,3.3558,3.3628,3.3715,3.3775,3.378,3.3849,3.3898,3.3972,3.4033,3.4097,3.4189,3.4264,3.432,3.4396,3.4438,3.4444,3.4456,3.4454,3.4463,3.4384,3.4363,3.445,3.445,3.445,3.445,3.445,3.445,3.3574,3.3665,3.3693,3.3808,3.3853,3.3936,3.3975,3.4027,3.4076,3.4177,3.424,3.4276,3.4335,3.4415,3.4484,3.4498,3.4525,3.4536,3.4551,3.4477,3.4468,3.446,3.4441,3.4542,3.4542,3.4624,3.4625,3.4626]}]]